Regional Weather Roundup
Issued by NWS New Orleans/Baton Rouge, LA

Home | Current Version | Previous Version | Text Only | Print | Product List | Glossary On
Versions: 1 2 3 4 5 6 7 8 9 10 11 12 13 14 15 16 17 18 19 20 21 22 23 24 25 26 27 28 29 30 31 32 33 34 35 36 37 38 39 40 41 42 43 44 45 46 47 48 49 50
036
ASUS44 KLIX 010901
RWRLIX
NEW ORLEANS REGIONAL WEATHER ROUNDUP
NATIONAL WEATHER SERVICE NEW ORLEANS LA
400 AM CDT FRI AUG 01 2014

NOTE: "FAIR" INDICATES FEW OR NO CLOUDS BELOW 12,000 FEET WITH NO
      SIGNIFICANT WEATHER AND/OR OBSTRUCTIONS TO VISIBILITY.
      SKY/WX - SKY CONDITION AND SIGNIFICANT WEATHER.
      TMP - AIR TEMPERATURE.     DP    - DEWPOINT TEMPERATURE.
      RH  - RELATIVE HUMIDITY.   PRES  - PRESSURE.
      HI  - HEAT INDEX.          WCI   - WIND CHILL INDEX.

*  THESE STATIONS ARE NOT NWS OR FAA STATIONS AND ARE NOT UNDER
   NWS QUALITY CONTROL.

LAZ038-040-048-061>063-065>067-069-011000-
SOUTHEAST LOUISIANA

CITY           SKY/WX    TMP DP  RH WIND       PRES   REMARKS
N.O. AUDUBON     N/A     82  68  62 MISG        N/A
N.O. INTL ARPT CLOUDY    77  71  82 CALM      29.97S
N.O. LAKEFRONT MOCLDY    80  69  69 E3        29.98S
N.O. DOWNTOWN*   N/A     81  64  57 CALM      29.98R
SLIDELL        MOCLDY    73  68  84 CALM      29.97S
BATON ROUGE    MOCLDY    73  68  84 NE5       29.97S
BOOTHVILLE     PTCLDY    77  66  68 SE5       29.97F
BELLE CHASSE   CLOUDY    74  70  87 CALM      29.96F
BOGALUSA*        N/A     73  68  85 CALM      30.00S
GALLIANO*      NOT AVBL
NEW ROADS*     PTSUNNY   74  67  77 CALM      29.97S
GONZALES*        N/A     73  73 100 CALM      29.97R
HAMMOND*       NOT AVBL
HOUMA*         MOCLDY    73  69  87 CALM      29.96F
PORT FOURCHON* SUNNY     82  64  54 E5        29.97F

$$

MSZ070-080>082-011000-
SOUTHERN MISSISSIPPI

CITY           SKY/WX    TMP DP  RH WIND       PRES   REMARKS
MCCOMB         CLOUDY    72  65  78 E3        29.99F
GULFPORT       MOCLDY    77  66  68 NE3       29.97F
BILOXI         CLOUDY    74  67  78 NE6       29.97F
PASCAGOULA     MOCLDY    70  68  93 CALM      29.97F

$$

COASTAL OBSERVATIONS
LAKE AND NEARSHORE STATIONS

STATION/POSITION TIME  TEMP    WIND        PRES    WAVE
                       AIR SEA DIR/SP/G            HT/PER
                 (UTC) (F)     (DEG/KT/KT) (MB)    (FT/S)
PASCAGOULA       0800   74      30/  4/  6 1014.4
WAVELAND YACHT   0800   76      30/  6/  7 1014.3
GRAND ISLE       0800   82 87  130/  2/  5 1015.3
SOUTHWEST PASS   0800   81 85   50/  3/  3 1015.1
NEW CANAL        0800   80 83   CALM  /  1 1015.1
SHELL BEACH      0800   81 81  140/  2/  3 1014.4

OFFSHORE STATIONS

STATION/POSITION TIME  TEMP    WIND        PRES    WAVE
                       AIR SEA DIR/SP/G            HT/PER
                 (UTC) (F)     (DEG/KT/KT) (MB)    (FT/S)
64 S DAUPHIN ISL 0847   81 84  350/  4/  6 1014.8

$$




USA.gov is the U.S. government's official web portal to all federal, state and local government web resources and services.